User: anonymous   Login
Location: Unspecified
(0.0000°N, 0.0000°E)
Time: 08:27:40
(UTC+00:00)
Language:

ATLANTIS - Orbit

View from above orbital plane
View from above orbital plane
View from above satellite
View from above satellite

Ground track
Ground track

The orbit data is extracted from the following two-line orbital elements,

1 42737U 98067MS  18087.11387049  .13966215  12356-4  93055-3 0  9999
2 42737  51.6095  27.8979 0006293 234.7874 125.2564 16.40626348 47903
Epoch (UTC): 28 March 2018 02:43:58
Eccentricity: 0.0006293
inclination: 51.6095°
perigee height: 160 km
apogee height: 168 km
right ascension of ascending node: 27.8979°
argument of perigee: 234.7874°
revolutions per day: 16.40626348
mean anomaly at epoch: 125.2564°
orbit number at epoch: 4790

The dashed part of the orbit path shows where the satellite is in the earth's shadow,  

DLR